Location: Podia
(1.5569°N, 32.3469°E)
Time: 16:03:34
(UTC+00:00)

Cosmos 1939 Rocket - Pass Details

Date: 01 June 2020
Orbit: 531 x 585 km, 97.4° (Epoch: 05 July)

Event Time Altitude Azimuth Distance (km) Brightness Sun altitude
Rises 16:14:14 0° 151° (SSE) 2,733 5.9 -5.3°
Reaches altitude 10° 16:16:32 10° 141° (SE) 1,845 5.0 -5.9°
Maximum altitude 16:20:04 30° 79° (ENE) 1,015 3.7 -6.7°
Drops below altitude 10° 16:23:38 10° 16° (NNE) 1,866 5.6 -7.5°
Sets 16:25:58 0° 6° (N) 2,769 6.6 -8.0°
